Other Public Products
Issued by NWS Charleston, SC

Home | Current Version | Previous Version | Text Only | Print | Product List | Glossary On
Versions: 1 2 3 4 5 6 7 8 9 10 11 12 13 14 15 16 17 18 19 20 21 22 23 24 25 26 27 28 29 30 31 32 33 34 35 36 37 38 39 40 41 42 43 44 45 46 47 48 49 50
798
FPUS82 KCHS 032012
OPUCHS

TEST...KCHS/KSAV Gateway Observations...TEST
National Weather Service Charleston SC
300 PM EST SAT DEC 03 2016

NOTE: "fair" indicates few or no clouds below 12,000 feet with no
significant weather and/or obstructions to visibility.

SCZ050-WAZ558-NCZ071-TXZ119-213-PAZ071-DCZ001-FLZ074-172-MI076-
NYZ176-178-MAZ016-IL014-TNZ027-NJZ106-GAZ044-MD014-032100-
...Gateway Observations for Charleston International...

CITY           SKY/WX    TMP DP  RH WIND       PRES   REMARKS
Chas Airport   PTSUNNY   58  34  40 CALM      30.22S
Seattle        CLOUDY    47  41  80 S14G23    30.27F
Charlotte      CLOUDY    52  31  44 NE5       30.23S
Dallas DFW     LGT RAIN  50  47  89 E10       29.98F FOG
Dallas Love    LGT RAIN  51  48  89 E13       29.99F
Philladelphia  PTSUNNY   51  29  42 NW18G25   30.11R
Wash National  MOSUNNY   49  29  46 NW16G23   30.22R
Baltimore      PTSUNNY   49  30  48 NW18G26   30.18R
Miami          PTSUNNY   77  65  66 E10       30.04S
Detroit        CLOUDY    38  28  67 W12       30.31R WCI  30
Newark         PTSUNNY   47  27  45 NW18G26   30.04R
Laguardia      MOSUNNY   49  28  44 NW26G36   30.03R
J F K          PTSUNNY   49  24  37 NW24G31   30.03S
Boston Logan   MOCLDY    43  24  47 W14G22    29.89R
Ft. Lauderdale MOSUNNY   78  63  59 NE10      30.03F
Chicago O`Hare CLOUDY    33  23  66 W7        30.32F WCI  27
Chicago Midway CLOUDY    34  22  61 W6        30.33F WCI  29
Houston Bush   CLOUDY    55  52  89 N9        29.88F
Houston Hobby  CLOUDY    57  54  89 NE8       29.87S
Nashville      CLOUDY    44  30  57 E5        30.31F
Atlanta        CLOUDY    56  27  32 SE3       30.21R

$$

GAZ044-118-TXZ119-213-NCZ071-DCZ001-MDZ014-506-PAZ021-071-NJZ106-
NYZ176-178-MAZ106-OHZ011-021-055-MIZ076-KYZ091-ILZ014-INZ047-
MNZ060-032100-
...Gateway Observations for Savannah International...

CITY           SKY/WX    TMP DP  RH WIND       PRES   REMARKS
Savannah Arpt  PTSUNNY   62  34  35 E9        30.21S
Atlanta        CLOUDY    56  27  32 SE3       30.21R
Charlotte      CLOUDY    52  31  44 NE5       30.23S
Dallas DFW     LGT RAIN  50  47  89 E10       29.98F FOG
Houston Bush   CLOUDY    55  52  89 N9        29.88F
Wash National  MOSUNNY   49  29  46 NW16G23   30.22R
Wash Dulles    MOSUNNY   46  28  49 N15       30.22R
Baltimore      PTSUNNY   49  30  48 NW18G26   30.18R
Philadelphia   PTSUNNY   51  29  42 NW18G25   30.11R
Newark         PTSUNNY   47  27  45 NW18G26   30.04R
Laguardia      MOSUNNY   49  28  44 NW26G36   30.03R
J F K          PTSUNNY   49  24  37 NW24G31   30.03S
Boston         MOCLDY    43  24  47 W14G22    29.89R
Pittsburg      CLOUDY    39  30  70 W7        30.27R WCI  34
Akron          CLOUDY    38  28  67 W8        30.29R WCI  32
Cleveland      CLOUDY    40  29  64 SW10      30.32R WCI  33
Cincinnati     CLOUDY    41  30  65 W6        30.31F
Columbus       CLOUDY    39  26  59 W5        30.31F WCI  36
Detroit        CLOUDY    38  28  67 W12       30.31R WCI  30
Chicago O`Hare CLOUDY    33  23  66 W7        30.32F WCI  27
Minneapolis    MOSUNNY   32  20  61 SE8       30.23F WCI  25
Indianapolis   CLOUDY    39  27  62 W6        30.32F WCI  35

$$




USA.gov is the U.S. government's official web portal to all federal, state and local government web resources and services.